User: anonymous   Login
Location: Unspecified
(0.0000°N, 0.0000°E)
Time: 04:53:18
(UTC+02:00)
Language:

Helios 1A Rocket - Orbit

View from above orbital plane
View from above orbital plane
View from above satellite
View from above satellite

Ground track
Ground track

The orbit data is extracted from the following two-line orbital elements,

1 23608U 95033D   17147.61308340 +.00000791 +00000-0 +75697-4 0  9999
2 23608 098.2217 078.8276 0015984 326.5352 033.4857 14.96262020184376
Epoch (UTC): 27 May 2017 14:42:50
Eccentricity: 0.0015984
inclination: 98.2217°
perigee height: 567 km
apogee height: 589 km
right ascension of ascending node: 78.8276°
argument of perigee: 326.5352°
revolutions per day: 14.96262020
mean anomaly at epoch: 33.4857°
orbit number at epoch: 18437

The dashed part of the orbit path shows where the satellite is in the earth's shadow,  

DLR